Погода в Старосубхангулове

Россия / Республика Башкортостан     53°06′07″N   57°26′29″E
темп.,
°C
ветер,
м/с
пор.,
м/с
влажн.,
%
обл.,
%
осадки,
мм/ч
давл.,
гПа
погр.,
м
8 мая, сб
сб823:00+10ю1165100 0.0 101915
02:00+9ююв1166100 0.0 101910
05:00+7всв1173100 0.0 101910
08:00+12всв115899 0.0 1018164
11:00+18в123691 0.0 10172040
14:00+19ссз1131100 0.0 10162388
17:00+18ююв1237100 0.0 10152160
20:00+13юз1166100 0.1 101630
9 мая, вс
вс923:00+11с1168100 0.1 101611
02:00+11ссз0071100 0.0 101610
05:00+8с018591 0.0 101710
08:00+12с12635 0.0 1017239
11:00+18с234024 0.0 10162182
14:00+18ссз2236100 0.0 10152004
17:00+18св334027 0.0 10161554
20:00+15ссв115467 0.0 101615
10 мая, пн
пн1023:00+12в006288 0.0 101810
02:00+10всв117016 0.0 101810
05:00+8св117475 0.0 102010
08:00+13всв23535 0.0 1021257
11:00+18в334053 0.0 10201818
14:00+20в3235100 0.0 10202492
17:00+18вюв344492 0.0 1021879
20:00+15в225949 0.0 102237
11 мая, вт
вт1123:00+12св116750 0.0 102310
02:00+10ссв117275 0.0 102411
05:00+9всв117499 0.0 102510
08:00+14в0157100 0.0 1025132
11:00+19зсз1240100 0.0 1025814
14:00+20зсз2237100 0.0 10251616
17:00+20сз2443100 0.0 1024905
20:00+17с116026 0.0 102515
12 мая, ср
ср1223:00+12с118765 0.0 102613
02:00+10св11955 0.0 102710
05:00+9всв11965 0.0 102813
08:00+12всв35616 0.0 1028476
11:00+17в33455 0.0 10271188
14:00+20в2234100 0.0 10261848
17:00+19в2235100 0.0 10261960
20:00+15вюв37535 0.0 1026246